Regional Weather Roundup
Issued by NWS Newport/Morehead, NC

Current Version | Previous Version | Graphics & Text | Print | Product List | Glossary Off
Versions: 1 2 3 4 5 6 7 8 9 10 11 12 13 14 15 16 17 18 19 20 21 22 23 24 25 26 27 28 29 30 31 32 33 34 35 36 37 38 39 40 41 42 43 44 45 46 47 48 49 50

000
ASUS42 KMHX 310213
RWRMHX
WEATHER ROUNDUP FOR EASTERN NORTH CAROLINA
NATIONAL WEATHER SERVICE NEWPORT/MOREHEAD CITY NC
1000 PM EDT THU JUL 30 2015

NOTE: "FAIR" INDICATES FEW OR NO CLOUDS BELOW 12,000 FEET
WITH NO SIGNIFICANT WEATHER AND/OR OBSTRUCTIONS TO VISIBILITY

NCZ015>017-031-032-045>047-102-103-310300-
NORTH COAST

CITY           SKY/WX    TMP DP  RH WIND       PRES   REMARKS
EDENTON          N/A     81  74  78 S10       29.90S
ELIZABETH CITY PTCLDY    81  75  82 S9        29.91R
KITTY HAWK     PTCLDY    82  73  76 S6        29.91S
MANTEO         PTCLDY    82  75  78 S15       29.92R

$$

NCZ045>047-081-094-103-104-310300-
CENTRAL COAST

CITY           SKY/WX    TMP DP  RH WIND       PRES   REMARKS
FRISCO         PTCLDY    82  75  79 S12       29.92R
SWANQUARTER      N/A     82 N/A N/A S8G15     29.88R

$$

NCZ095-097-098-100-101-310300-
SOUTHERN COAST

CITY           SKY/WX    TMP DP  RH WIND       PRES   REMARKS
BEAUFORT       PTCLDY    81  76  84 SE5       29.91R
CEDAR ISLAND     N/A     81 N/A N/A SE2G8     29.94S
JACKSONVILLE   PTCLDY    80  74  81 SE5       29.90R
PINEY ISLAND   PTCLDY   N/A N/A N/A MISG      29.91R
WILMINGTON     CLEAR     81  75  82 CALM      29.90R


$$

NCZ011>013-027>030-043-044-078>080-089-090>093-098-310300-
COASTAL PLAIN

CITY           SKY/WX    TMP DP  RH WIND       PRES   REMARKS
AHOSKIE        MOCLDY    81  74  81 S3        29.90R
CLINTON        PTCLDY    82  76  81 CALM      29.91R
ELIZABETHTOWN  MOCLDY    83  74  73 S5        29.92R
GOLDSBORO      PTCLDY    83  76  78 SE5       29.89R
GREENVILLE     MOCLDY    84  77  79 S13       29.92R
HAVELOCK       MOCLDY    79  75  87 SE5       29.92R
KENANSVILLE    PTCLDY   N/A N/A N/A CALM      29.92R
KINSTON        NOT AVBL
NEW BERN       MOCLDY    80  74  81 CALM      29.92R
RICHLANDS      PTCLDY    81  72  74 CALM      29.91R
ROCKY MOUNT    CLOUDY    79  76  90 CALM      29.90R
WASHINGTON     PTCLDY    82  75  80 S6        29.91R
WHITEVILLE     PTCLDY    83  75  78 SW3       29.92R

$$

AMZ130-135-150-152-154-156-158-170-250-252-270-ANZ085-086-088-633-658-670-310300-
MARINE OBSERVATIONS

STATION/POSITION TIME  TEMP    WIND        PRES    WAVE   SWELL
                       AIR SEA DIR/SP/G            HT/PER HT/PER
                 (UTC) (F)     (DEG/KT/KT) (MB)    (FT/S) (FT/S)
CHESAPEAKE LIGHT 0200   82     190/ 20/ 22 1012.6
64 E VA BEACH    0150   82 82  190/ 17/ 19 1012.6    4/ 7   2/10
DUCK             0100   81 64  170/ 12/ 15 1011.7
2 E DUCK         0111      71                N/A     3/10   2/11
OREGON INLET     0100   82 87  160/  9/ 11 1012.9
13E OREGON INLT  0200      82                N/A     4/ 6   2/11
HATTERAS CG      0100   82 84  160/  8/ 13 1012.6
DIAMOND BUOY     0150   83 86  170/ 16/ 17 1013.1    5/ 8   3/ 8
CAPE LOOKOUT     0200   82     160/  6/  7 1012.5
BEAUFORT LAB     0100   82 82  150/  5/  9 1011.5
30 SE NEW RVR IN NOT AVBL
27 SE WRIGHTSVLE 0100   80 83  150/  8/ 10   N/A
5 SE WRIGHTSVLE  NOT AVBL
225 S CAPE HAT   0150   81 81  220/ 23/ 27 1013.2   12/ 8
41 SE CHARLESTON 0150   85 85  240/ 10/ 12 1012.4    2/ 8   2/ 8

$$


USA.gov is the U.S. government's official web portal to all federal, state and local government web resources and services.